Regional Weather Roundup
Issued by NWS Portland, ME

Current Version | Previous Version | Text Only | Print | Product List | Glossary Off
Versions: 1 2 3 4 5 6 7 8 9 10 11 12 13 14 15 16 17 18 19 20 21 22 23 24 25 26 27 28 29 30 31 32 33 34 35 36 37 38 39 40 41 42 43 44 45 46 47 48 49 50
000 ASUS41 KGYX 221305 RWRGYX WEATHER ROUNDUP FOR MAINE AND NEW HAMPSHIRE NATIONAL WEATHER SERVICE GRAY ME 900 AM EDT FRI SEP 22 2017 MEZ002-005-006-010-012-015-018-020-021-024-026-027-029-221400- MAINE CITY SKY/WX TMP DP RH WIND PRES REMARKS PORTLAND PTSUNNY 57 47 69 N14 30.12R SANFORD CLOUDY 60 49 66 N16 30.10S BAR HARBOR PTSUNNY 57 50 77 N10 30.14F WISCASSET CLOUDY 59 48 67 VRB6 30.13S ROCKLAND CLOUDY 58 50 75 NE14G22 30.12R FRYEBURG CLOUDY 61 46 57 N8 30.17S LEWISTONAUBURN CLOUDY 58 47 66 N15 30.15S AUGUSTA MOSUNNY 57 46 66 N16G22 30.16F WATERVILLE MOSUNNY 57 47 69 N13 30.15S BANGOR PTSUNNY 56 47 71 N12 30.18S GREENVILLE N/A 56 49 77 NW7 30.20R MILLINOCKET SUNNY 56 45 66 E7 30.24R HOULTON MOSUNNY 53 45 74 N5 30.22S PRESQUE ISLE SUNNY 48 45 89 CALM 30.24F FRENCHVILLE SUNNY 53 44 71 SE3 30.22R CARIBOU SUNNY 52 46 80 S5 30.23S $$ NHZ002-005-008-009-011-012-014-221400- NEW HAMPSHIRE CITY SKY/WX TMP DP RH WIND PRES REMARKS PORTSMOUTH CLOUDY 60 50 68 N12G28 30.07S ROCHESTER CLOUDY 60 47 61 N12G22 30.09S NASHUA CLOUDY 62 50 64 N9G18 30.07S MANCHESTER CLOUDY 64 49 57 N13 30.06F CONCORD CLOUDY 64 48 56 N14 30.10F LACONIA PTSUNNY 62 46 55 NE13G22 30.13S PLYMOUTH CLOUDY 49 48 97 CALM 30.15S BERLIN FOG 44 42 93 CALM 30.21S VSB<1/4 WHITEFIELD CLOUDY 59 48 67 N5 30.17S JAFFREY CLOUDY 61 49 64 N8 30.10S KEENE CLOUDY 66 47 50 N10 30.10S LEBANON PTSUNNY 53 52 96 CALM 30.16R MT WASHINGTON PTSUNNY 50 16 25 E37 N/A $$ VTZ005-007-008-221400- VERMONT CITY SKY/WX TMP DP RH WIND PRES REMARKS ST JOHNSBURY N/A 50 48 93 MISG 30.17R MONTPELIER FOG 49 49 100 CALM 30.22R VSB 1/4 BURLINGTON CLOUDY 61 54 77 VRB3 30.16R $$ MAZ007-012-024-CTZ003-RIZ002-NYZ038-NYZ072-221400- SOUTHERN NEW ENGLAND AND NY CITY SKY/WX TMP DP RH WIND PRES REMARKS BOSTON CLOUDY 58 55 90 N25G32 30.01S WORCESTER CLOUDY 59 46 62 N16G32 30.03S NANTUCKET LGT RAIN 62 62 100 N32G41 29.78R FOG PROVIDENCE CLOUDY 59 56 89 N26G36 29.96S HARTFORD PTSUNNY 68 49 50 N20G28 30.03R ALBANY PTSUNNY 62 55 77 N7 30.12S NEW YORK CITY PTSUNNY 70 50 49 N14 30.01S $$ ANZ081-ANZ082-ANZ150-NHZ014-MEZ023>029-221400- COASTAL MARINE OBSERVATIONS STATION/POSITION TIME TEMP WIND PRES WAVE AIR SEA DIR/SP/G HT/PER (UTC) (F) (DEG/KT/KT) (MB) (FT/S) MOUNT DESERT ROC 1200 55 20/ 29/ 33 1018.6S MATINICUS ROCK 1200 56 40/ 27/ 30 1017.9F ISLE OF SHOALS 1200 59 20/ 27/ 33 1016.9R JEFFREYS LEDGE 1236 62 N/A 12/ 9 GEORGES BANK BUO 1150 72 73 1007.4 15/ 9 $$ .............KEY.............. WCI - WIND CHILL TC - TEMPERATURE IN CELSIUS VSB - VISIBILITY IN MILES HX - HEAT INDEX FAIR- INDICATES FEW OR NO CLOUDS BELOW 12,000 FT, WITH NO SIGNIFICANT WEATHER AND/OR OBSTRUCTIONS TO VISIBILITY.

USA.gov is the U.S. government's official web portal to all federal, state and local government web resources and services.